Location: Unspecified
(0.0000°N, 0.0000°E)
Time: 02:46:19
(UTC+02:00)

NATO 3D Rocket - Visible Passes

Search period start: 23 October 2017 00:00
Search period end: 01 November 2017 23:00
Orbit: 670 x 2296 km, 21.5° (Epoch: 22 October)

Date Brightness Start Highest point End Pass type
(mag) Time Alt. Az. Time Alt. Az. Time Alt. Az.
23 Oct 3.5 06:21:12 45° WNW 06:22:12 54° NNW 06:27:30 10° NE visible
23 Oct 6.7 20:54:19 10° WSW 21:05:16 31° SSW 21:13:56 10° SE visible
23 Oct 6.7 23:05:35 10° SW 23:11:04 17° SSW 23:11:04 17° SSW visible
24 Oct 5.1 05:28:07 25° ENE 05:28:07 25° ENE 05:30:15 10° ENE visible
24 Oct 6.8 19:54:01 10° W 20:06:31 39° SSW 20:16:49 10° SE visible
24 Oct 6.6 22:04:58 10° WSW 22:13:17 21° SSW 22:17:42 16° SSE visible
25 Oct 4.2 06:30:35 27° NW 06:31:33 30° NNW 06:36:06 10° NE visible
25 Oct 6.8 21:04:20 10° WSW 21:14:37 26° SSW 21:22:58 10° SE visible
25 Oct 6.8 23:14:57 10° SW 23:19:50 17° SSW 23:19:50 17° SSW visible
26 Oct 5.2 05:37:27 20° NE 05:37:27 20° NE 05:39:08 10° NE visible
26 Oct 6.9 20:03:54 10° WSW 20:15:41 32° SSW 20:25:40 10° SE visible
26 Oct 6.6 22:14:44 10° SW 22:22:59 21° S 22:26:23 18° SSE visible
27 Oct 4.9 06:39:52 16° NW 06:40:59 17° NNW 06:44:18 10° NNE visible
27 Oct 6.8 21:14:17 10° WSW 21:24:11 24° S 21:32:21 10° SE visible
27 Oct 6.8 23:23:46 10° SW 23:28:26 19° SSW 23:28:26 19° SSW visible
28 Oct 5.5 05:46:41 15° NNE 05:46:41 15° NNE 05:47:43 10° NE visible
28 Oct 7.0 20:13:55 10° WSW 20:25:06 28° S 20:34:46 10° SE visible
28 Oct 6.5 22:23:59 10° SW 22:32:46 23° S 22:34:53 21° SSE visible
29 Oct 5.4 05:49:29 10° NNW 05:50:31 11° NNW 05:51:33 10° N visible
29 Oct 6.8 20:23:55 10° SW 20:33:54 24° S 20:41:19 12° SE visible
29 Oct 6.8 22:32:11 10° SW 22:36:52 21° SSW 22:36:52 21° SSW visible
30 Oct 5.7 04:55:47 10° NNE 04:55:47 10° NNE 04:55:50 10° NNE visible
30 Oct 7.0 19:23:49 10° WSW 19:34:44 27° S 19:44:15 10° SE visible
30 Oct 6.4 21:32:44 10° SW 21:42:31 27° S 21:43:15 27° SSE visible
31 Oct 6.6 20:33:04 10° SW 20:43:38 27° S 20:49:39 18° SE visible
31 Oct 6.7 22:40:25 10° SW 22:45:10 23° SSW 22:45:10 23° SSW visible
01 Nov 6.9 19:33:21 10° SW 19:44:26 27° S 19:54:08 10° SE visible
01 Nov 6.2 21:41:10 10° SW 21:51:31 33° S 21:51:31 33° S visible
